Location: Caltech
(34.1382°N, 118.1253°W)
Time: 23:15:00
(UTC-07:00)

Cosmos 1484 Rocket - Visible Passes

Search period start: 27 July 2014 00:00
Search period end: 06 August 2014 00:00
Orbit: 515 x 575 km, 97.4° (Epoch: 27 July)

Date Brightness Start Highest point End Pass type
(mag) Time Alt. Az. Time Alt. Az. Time Alt. Az.
27 Jul 3.9 20:44:56 10° S 20:48:49 46° W 20:52:40 10° NNW visible
28 Jul 3.6 20:39:07 10° S 20:43:04 55° W 20:46:59 10° NNW visible
29 Jul 3.3 20:33:20 10° S 20:37:19 66° W 20:41:17 10° NNW visible
30 Jul 3.0 20:27:34 10° S 20:31:35 79° WSW 20:35:33 10° NNW visible
31 Jul 2.8 20:21:50 10° SSE 20:25:50 86° ENE 20:29:48 10° N visible
01 Aug 2.8 20:16:07 10° SSE 20:20:06 73° ENE 20:24:02 10° N visible
02 Aug 2.9 20:10:26 10° SSE 20:14:21 60° ENE 20:18:14 10° N visible
04 Aug 5.9 21:36:45 10° WSW 21:37:40 11° W 21:38:35 10° W visible
05 Aug 5.7 21:30:06 10° WSW 21:31:52 13° W 21:33:38 10° WNW visible
